(294823) = 2006 UX295 = 2008 CA136

Discovered at Kitt Peak on 2008-02-08 by Spacewatch.

Orbit

Orbit type: Main Belt

Note: WebGL enabled browser required.

epoch2023-09-13.0
epoch JD2460200.5
perihelion date2021-08-18.61140
perihelion JD2459445.11140
argument of perihelion (°)109.92457
ascending node (°)356.72127
inclination (°)3.85165
eccentricity0.1133504
perihelion distance (AU)2.0308673
Tisserand w.r.t. Jupiter3.6
ΔV w.r.t. Earth (km/sec)8.9
semimajor axis (AU)2.2904958
mean anomaly (°)214.77317
mean daily motion (°/day)0.28432140
aphelion distance (AU)2.550
period (years)3.47
P-vector [x]-0.28657652
P-vector [y]0.85196809
P-vector [z]0.43820574
Q-vector [x]-0.95804965
Q-vector [y]-0.25300663
Q-vector [z]-0.13464216
absolute magnitude18.12
phase slope0.15
uncertainty0
referenceMPEC 2023-R13
observations used205
oppositions13
arc length (days)8220
first opposition used2001
last opposition used2023
residual rms (arc-secs)0.85
perturbers coarse indicatorM-v
perturbers precise indicator003Ek
first observation date used2001-03-03.0
last observation date used2023-09-04.0
computer nameMPCLINUX
JD of orbit computation2456581.681478
perihelion JD uncertainty (days)1.9070E-04
argument of perihelion uncertainty (°)9.3012E-05
ascending node uncertainty (°)7.4137E-05
inclination uncertainty (°)9.4024E-06
eccentricity uncertainty 6.2304E-08
perihelion distance uncertainty (AU)1.4374E-07
Minimum Orbit Intersection Distances (in AU)
for orbit epoch: 2460200.5, reference: E2023-R13
Mercury1.71285
Venus1.31259
Earth1.05008
Mars0.40019
Jupiter2.54641
Saturn7.01319
Uranus16.2705
Neptune27.5376

Observations

208 total observations over interval: 2001 03 03.19502 – 2023 09 04.264017
These data are available for download (format description).

Date (UT) J2000 RA J2000 Dec Magn Location Ref
2001 03 03.19502 09 44 17.00 +16 46 54.5 21.5 V 691 – Steward Observatory, Kitt Peak-Spacewatch MPS 239657
2001 03 03.21707 09 44 15.70 +16 46 56.2 21.7 V 691 – Steward Observatory, Kitt Peak-Spacewatch MPS 239657
2001 03 03.23910 09 44 14.54 +16 46 58.5 20.8 V 691 – Steward Observatory, Kitt Peak-Spacewatch MPS 239657
2003 11 18.17883 03 21 38.67 +24 48 45.0 21.5 V 691 – Steward Observatory, Kitt Peak-Spacewatch MPS 239657
2003 11 18.21208 03 21 36.26 +24 48 40.0 21.2 V 691 – Steward Observatory, Kitt Peak-Spacewatch MPS 239657
2003 11 18.23972 03 21 34.27 +24 48 34.7 21.1 V 691 – Steward Observatory, Kitt Peak-Spacewatch MPS 239657
2006 08 21.27904 23 18 20.90 -06 33 30.6 21.4 V 691 – Steward Observatory, Kitt Peak-Spacewatch MPS 239657
2006 08 21.29634 23 18 20.02 -06 33 34.6 21.7 V 691 – Steward Observatory, Kitt Peak-Spacewatch MPS 239657
2006 08 21.31364 23 18 19.12 -06 33 38.3 21.5 V 691 – Steward Observatory, Kitt Peak-Spacewatch MPS 239657
2006 09 26.23884 22 44 18.27 -08 58 17.6 21.0 V G96 – Mt. Lemmon Survey MPS 239657
2006 09 26.24557 22 44 17.91 -08 58 19.2 21.5 V G96 – Mt. Lemmon Survey MPS 239657
2006 09 26.25237 22 44 17.59 -08 58 20.3 21.1 V G96 – Mt. Lemmon Survey MPS 239657
2006 09 26.25925 22 44 17.23 -08 58 21.8 21.7 V G96 – Mt. Lemmon Survey MPS 239657
2006 10 19.10461 22 32 24.30 -09 24 08.7 20.9 R 695 – Kitt Peak MPS 190637
2006 10 19.10839 22 32 24.25 -09 24 08.6 21.1 R 695 – Kitt Peak MPS 190637
2006 10 19.19841 22 32 23.05 -09 24 05.0   695 – Kitt Peak MPS 190637
2006 10 19.20218 22 32 23.01 -09 24 04.7   695 – Kitt Peak MPS 190637
2006 10 20.10690 22 32 13.80 -09 23 22.8   695 – Kitt Peak MPS 190637
2006 10 20.11097 22 32 13.75 -09 23 22.6   695 – Kitt Peak MPS 190637
2008 02 01.33434 11 06 34.02 +09 05 49.5 21.0 V 691 – Steward Observatory, Kitt Peak-Spacewatch MPS 239657
2008 02 01.35192 11 06 33.40 +09 05 51.9 21.2 V 691 – Steward Observatory, Kitt Peak-Spacewatch MPS 239658
2008 02 01.36951 11 06 32.74 +09 05 54.7 21.0 V 691 – Steward Observatory, Kitt Peak-Spacewatch MPS 239658
2008 02 08.33972 11 01 53.50 +09 24 30.5 20.4 V 691 – Steward Observatory, Kitt Peak-Spacewatch MPS 239197
2008 02 08.35733 11 01 52.64 +09 24 33.8 20.5 V 691 – Steward Observatory, Kitt Peak-Spacewatch MPS 239197
2008 02 08.37246 11 01 51.91 +09 24 36.4 20.4 V 691 – Steward Observatory, Kitt Peak-Spacewatch MPS 239197
2008 02 12.33673 10 58 36.36 +09 37 40.6 20.6 V 691 – Steward Observatory, Kitt Peak-Spacewatch MPS 239197
2008 02 12.35437 10 58 35.41 +09 37 44.3 20.5 V 691 – Steward Observatory, Kitt Peak-Spacewatch MPS 239197
2008 02 12.37200 10 58 34.45 +09 37 47.9 20.3 V 691 – Steward Observatory, Kitt Peak-Spacewatch MPS 239197
2008 02 26.33088 10 44 49.95 +10 30 03.3 19.9 V G96 – Mt. Lemmon Survey MPS 239658
2008 02 26.33662 10 44 49.52 +10 30 04.9 19.7 V G96 – Mt. Lemmon Survey MPS 239658
2008 02 26.34228 10 44 49.16 +10 30 06.1 20.3 V G96 – Mt. Lemmon Survey MPS 239658
2008 02 26.34799 10 44 48.76 +10 30 07.2 20.2 V G96 – Mt. Lemmon Survey MPS 239658
2008 04 03.18927 10 16 26.07 +11 33 25.8 21.0 V G96 – Mt. Lemmon Survey MPS 244809
2008 04 03.19536 10 16 25.96 +11 33 25.6 20.6 V G96 – Mt. Lemmon Survey MPS 244809
2008 04 03.20137 10 16 25.89 +11 33 25.1 21.0 V G96 – Mt. Lemmon Survey MPS 244809
2008 04 03.20740 10 16 25.75 +11 33 24.5 20.7 V G96 – Mt. Lemmon Survey MPS 244809
2008 04 25.23194 10 18 18.61 +10 33 13.2 21.6 V G96 – Mt. Lemmon Survey MPS 247776
2008 04 25.23841 10 18 18.72 +10 33 11.1 21.6 V G96 – Mt. Lemmon Survey MPS 247776
2008 04 25.24504 10 18 18.86 +10 33 09.3 21.0 V G96 – Mt. Lemmon Survey MPS 247776
2008 04 25.25167 10 18 19.04 +10 33 08.5 20.5 V G96 – Mt. Lemmon Survey MPS 247776
2010 11 27.38192 04 14 06.00 +28 08 01.5 19.9 V G96 – Mt. Lemmon Survey MPS 359097
2010 11 27.39157 04 14 05.31 +28 08 00.4 19.6 V G96 – Mt. Lemmon Survey MPS 359097
2010 11 27.40126 04 14 04.63 +28 07 59.2 19.9 V G96 – Mt. Lemmon Survey MPS 359097
2010 11 27.41095 04 14 03.91 +28 07 57.9 19.6 V G96 – Mt. Lemmon Survey MPS 359097
2010 12 01.27751 04 09 31.17 +28 00 30.2 19.9 V G96 – Mt. Lemmon Survey MPS 359097
2010 12 01.28431 04 09 30.67 +28 00 29.5 20.1 V G96 – Mt. Lemmon Survey MPS 359097
2010 12 01.29117 04 09 30.16 +28 00 28.2 20.0 V G96 – Mt. Lemmon Survey MPS 359097
2010 12 01.29809 04 09 29.66 +28 00 27.6 19.9 V G96 – Mt. Lemmon Survey MPS 359097
2013 09 01.43318 23 44 47.158 -02 40 58.48 21.1 w F51 – Pan-STARRS 1, Haleakala MPS 476052
2013 09 01.44665 23 44 46.420 -02 41 01.61 21.0 w F51 – Pan-STARRS 1, Haleakala MPS 476052
2013 09 01.46011 23 44 45.687 -02 41 04.66 21.3 w F51 – Pan-STARRS 1, Haleakala MPS 476052
2013 09 01.47354 23 44 44.945 -02 41 08.02 21.0 w F51 – Pan-STARRS 1, Haleakala MPS 476052
2013 09 12.25944 23 34 30.70 -03 27 10.3 20.1 V G96 – Mt. Lemmon Survey MPS 477587
2013 09 12.26966 23 34 30.09 -03 27 12.8 20.2 V G96 – Mt. Lemmon Survey MPS 477587
2013 09 12.27985 23 34 29.47 -03 27 15.0 20.0 V G96 – Mt. Lemmon Survey MPS 477587
2013 09 12.29000 23 34 28.84 -03 27 17.9 20.3 V G96 – Mt. Lemmon Survey MPS 477587
2013 09 15.30947 23 31 26.66 -03 40 50.9 20.2 V G96 – Mt. Lemmon Survey MPS 477587
2013 09 15.31733 23 31 26.17 -03 40 53.4 20.3 V G96 – Mt. Lemmon Survey MPS 477587
2013 09 15.32508 23 31 25.69 -03 40 55.2 20.2 V G96 – Mt. Lemmon Survey MPS 477587
2013 09 15.33281 23 31 25.21 -03 40 57.3 20.2 V G96 – Mt. Lemmon Survey MPS 477587
2013 10 08.19317 23 10 32.55 -05 08 07.9 20.5 V G96 – Mt. Lemmon Survey MPS 482170
2013 10 08.19979 23 10 32.28 -05 08 08.9 20.9 V G96 – Mt. Lemmon Survey MPS 482170
2013 10 08.20643 23 10 32.00 -05 08 10.2 20.8 V G96 – Mt. Lemmon Survey MPS 482170
2013 10 08.21307 23 10 31.69 -05 08 11.5 21.1 V G96 – Mt. Lemmon Survey MPS 482170
2015 02 11.49509 11 44 29.80 +03 44 38.9 21.0 V 691 – Steward Observatory, Kitt Peak-Spacewatch MPS 579597
2015 02 11.51532 11 44 29.09 +03 44 41.3 21.3 V 691 – Steward Observatory, Kitt Peak-Spacewatch MPS 579597
2015 02 11.54425 11 44 28.05 +03 44 44.4 21.3 V 691 – Steward Observatory, Kitt Peak-Spacewatch MPS 579597
2015 02 15.47100 11 42 00.160 +03 53 26.07 20.9 w F51 – Pan-STARRS 1, Haleakala MPS 582933
2015 02 15.48421 11 41 59.585 +03 53 27.96 20.7 w F51 – Pan-STARRS 1, Haleakala MPS 582933
2015 02 15.49752 11 41 58.990 +03 53 30.07 20.9 w F51 – Pan-STARRS 1, Haleakala MPS 582933
2015 02 15.51083 11 41 58.399 +03 53 32.08 20.9 w F51 – Pan-STARRS 1, Haleakala MPS 582933
2015 02 16.45652 11 41 18.657 +03 55 58.32 20.8 w F51 – Pan-STARRS 1, Haleakala MPS 586927
2015 02 16.46947 11 41 18.064 +03 56 00.43 20.7 w F51 – Pan-STARRS 1, Haleakala MPS 586927
2015 02 16.48238 11 41 17.470 +03 56 02.54 20.7 w F51 – Pan-STARRS 1, Haleakala MPS 586927
2015 02 16.49532 11 41 16.884 +03 56 04.56 20.6 w F51 – Pan-STARRS 1, Haleakala MPS 586927
2015 02 25.36103 11 33 56.49 +04 24 18.9 20.6 V 691 – Steward Observatory, Kitt Peak-Spacewatch MPS 585454
2015 02 25.37627 11 33 55.65 +04 24 22.5 20.7 V 691 – Steward Observatory, Kitt Peak-Spacewatch MPS 585454
2015 02 25.39060 11 33 54.81 +04 24 25.4 20.8 V 691 – Steward Observatory, Kitt Peak-Spacewatch MPS 585454
2015 03 10.31157 11 21 00.31 +05 15 05.6 19.9 V G96 – Mt. Lemmon Survey MPS 586927
2015 03 10.31992 11 20 59.78 +05 15 08.0 19.9 V G96 – Mt. Lemmon Survey MPS 586927
2015 03 10.32825 11 20 59.24 +05 15 09.9 19.9 V G96 – Mt. Lemmon Survey MPS 586927
2015 03 10.33660 11 20 58.71 +05 15 11.8 20.0 V G96 – Mt. Lemmon Survey MPS 586927
2015 03 10.42265 11 20 53.17 +05 15 32.5 20.0 V G96 – Mt. Lemmon Survey MPS 586927
2015 03 10.43163 11 20 52.59 +05 15 34.3 20.1 V G96 – Mt. Lemmon Survey MPS 586927
2015 03 10.44059 11 20 51.98 +05 15 36.4 19.8 V G96 – Mt. Lemmon Survey MPS 586927
2015 03 10.44954 11 20 51.46 +05 15 38.4 20.0 V G96 – Mt. Lemmon Survey MPS 586927
2015 03 15.27473 11 15 54.98 +05 34 24.1 20.4 r G45 – Space Surveillance Telescope, Atom Site MPS 597491
2015 03 15.28592 11 15 54.28 +05 34 26.5 20.2 r G45 – Space Surveillance Telescope, Atom Site MPS 597491
2015 03 15.29131 11 15 54.03 +05 34 28.3 20.3 r G45 – Space Surveillance Telescope, Atom Site MPS 597491
2015 03 15.29391 11 15 53.87 +05 34 29.3 19.9 V G96 – Mt. Lemmon Survey MPS 591853
